Main page
METAR-TAF:

METAR-TAF

Airports :

Shimla Airport

Shimla, India

latitude: 31-04-54N, longitude: 77-04-05E, elevation: 1546 m

Current weather observation

The report was made 16 minutes ago, at 03:00 UTC
Wind 2 kt from the South/Southwest
Temperature 15°C
Humidity 67%
Pressure 1017 hPa
Visibility: 8000 m

METAR: VISM 190300Z 20002KT 8000 NSC 15/09 Q1017

Time: 08:46 (03:16 UTC)


TAF: missing

Weather observations and forecasts of more than 4000 airports (METAR and TAF reports).

The available stations are represented by yellow and red dots on the map.

Hover mouse over dot to see the name of the station.

Then click to see weather observations and forecasts.

To change the map : click on the green buttons with a black cross to zoom in, on the green button with a dash to zoom out, or on the green arrows for adjacent maps.


METAR-TAF: